Hourly Data Report for October 28, 2015

All times are specified in Local Standard Time (LST). Add 1 hour to adjust for Daylight Saving Time where and when it is observed.

CORAL HARBOUR A
NUNAVUT

64°11'36.000" N
83°21'34.000" W
62.20 m
2301002
71915
YZS

Download Data

Hourly Data (October 2015)
Hourly Data Report for October 28, 2015
Temp Definition
°C
Dew Point Temp Definition
°C
Rel Hum Definition
%
Wind Dir Definition
10's deg

Wind Spd Definition
km/h
Visibility Definition
km
Stn Press Definition
kPa
Hmdx Definition


Wind Chill Definition


Weather Definition


TIME
00:00 Legend Double Dagger -17.4 -20.2 79 32 8 24.1 100.38   -23 LegendNANA
01:00 Legend Double Dagger -18.6 -21.4 79 35 17 24.1 100.38   -28 Clear
02:00 Legend Double Dagger -19.5 -22.0 81 30 19 24.1 100.44   -30 LegendNANA
03:00 Legend Double Dagger -21.7 -24.4 79 31 18 24.1 100.44   -32 LegendNANA
04:00 Legend Double Dagger -20.9 -23.9 77 33 18 24.1 100.46   -31 Clear
05:00 Legend Double Dagger -22.2 -25.1 78 31 15 24.1 100.50   -32 LegendNANA
06:00 Legend Double Dagger -22.1 -25.0 78 31 20 24.1 100.49   -33 LegendNANA
07:00 Legend Double Dagger -22.7 -25.8 76 32 17 24.1 100.51   -33 Mainly Clear
08:00 Legend Double Dagger -22.2 -25.2 77 34 15 24.1 100.52   -32 LegendNANA
09:00 Legend Double Dagger -21.4 -24.4 77 1 17 24.1 100.50   -31 LegendNANA
10:00 Legend Double Dagger -20.5 -24.2 73 35 20 24.1 100.48   -31 Mainly Clear
11:00 Legend Double Dagger -19.2 -22.9 73 33 15 24.1 100.48   -28 LegendNANA
12:00 Legend Double Dagger -18.7 -22.6 72 34 20 24.1 100.48   -29 LegendNANA
13:00 Legend Double Dagger -17.6 -21.3 73 34 20 24.1 100.49   -27 Mainly Clear
14:00 Legend Double Dagger -17.4 -21.0 74 35 18 24.1 100.45   -27 LegendNANA
15:00 Legend Double Dagger -17.6 -20.9 76 35 19 24.1 100.43   -27 LegendNANA
16:00 Legend Double Dagger -18.4 -21.8 75 34 19 24.1 100.42   -28 Mostly Cloudy
17:00 Legend Double Dagger -19.9 -23.1 76 34 20 24.1 100.40   -30 LegendNANA
18:00 Legend Double Dagger -21.2 -24.2 77 35 17 24.1 100.39   -31 LegendNANA
19:00 Legend Double Dagger -20.1 -23.9 72 1 13 24.1 100.36   -29 Mainly Clear
20:00 Legend Double Dagger -19.2 -22.4 76 36 16 24.1 100.32   -28 LegendNANA
21:00 Legend Double Dagger -17.6 -20.1 81 2 14 24.1 100.28   -26 LegendNANA
22:00 Legend Double Dagger -17.0 -19.4 82 3 14 24.1 100.24   -25 Mainly Clear
23:00 Legend Double Dagger -15.6 -17.9 83 5 19 24.1 100.19   -25 LegendNANA

Notes on Data Quality.

Legend

  • E = Estimated
  • M = Missing
  • NA = Not Available
  • ‡ = Partner data that is not subject to review by the National Climate Archives
Date modified: